sat.trackr.live / text

‹ back to catalog

STP-S29A OBJECT A

NORAD 68627 · 2026-074A

PAYLOAD ACTIVE UNKNOWN

§ Identity

Operator
Country
US
Launch date
2026-04-07
Launch site
AFWTR
Launch vehicle
Mass (kg)
RCS (m²)

External: N2YO · Heavens-Above · Gunter

§ Orbital elements

Epoch: 2026-05-25T00:55:47.612064Z

Period
94.50 min
Inclination
60.0173°
Eccentricity
0.0023368
Mean motion
15.23769216 rev/d
Perigee alt
478.4 km
Apogee alt
510.5 km
Semi-major
6,872.6 km
B*
2.9564e-4
RAAN
267.1565°
Arg perigee
356.9764°
Mean anomaly
3.1171°
Rev number
725

§ Raw data

STP-S29A OBJECT A1 68627U 26074A   26145.03874551  .00006941  00000+0  29564-3 0  99972 68627  60.0173 267.1565 0023368 356.9764   3.1171 15.23769216  7251

JSON: /api/v1/satellites/68627 · /tle

For live sub-satellite position, see the globe view (requires WebGL).

§ Visibility from observer

Set your observer location to see the next 7 days of passes ≥ 10°. The values pass through the URL so the page stays shareable.

No JS? Fill the form by hand. The geolocation button needs JavaScript.